Погода в Радивоновке

Украина / Полтавская область     49°38′27″N   33°32′38″E
темп.,
°C
ветер,
м/с
пор.,
м/с
влажн.,
%
обл.,
%
осадки,
мм/ч
давл.,
гПа
погр.,
м
20 июня, вс
вс2000:00+20всв5138531 0.0 1018374
03:00+19всв61481100 0.0 1017364
06:00+19всв61376100 0.0 1017391
09:00+22в71469100 0.0 1017586
12:00+24в81260100 0.0 1016732
15:00+25в6116442 0.0 1016944
18:00+24в7127097 0.0 1015815
21:00+20всв5138210 0.0 1015393
21 июня, пн
пн2100:00+19в513830 0.0 1015300
03:00+17всв499127 0.0 1014169
06:00+18всв37884 0.0 1014156
09:00+23в4771100 0.0 1014455
12:00+26вюв6757100 0.0 1013930
15:00+28вюв68560 0.0 10131286
18:00+27вюв58643 0.0 1013979
21:00+22в46825 0.0 101493
22 июня, вт
вт2200:00+20в36835 0.0 101494
03:00+19всв468697 0.4 101396
06:00+18всв478693 0.0 1014148
09:00+23в51170100 0.3 1014399
12:00+27вюв6105315 0.0 1014858
15:00+28вюв695359 0.0 10141112
18:00+27в49630 0.0 10141058
21:00+23всв49820 0.0 1015150
23 июня, ср
ср2300:00+20всв37841 0.0 1014120
03:00+20всв349154 0.0 101466
06:00+20св478744 0.0 1014132
09:00+25всв586691 0.0 1014420
12:00+28вюв6958100 0.0 1014907
15:00+28вюв5662100 0.0 10151023
18:00+27вюв5874100 0.0 1016533
21:00+24в3679100 0.0 1016118
24 июня, чт
чт2400:00+22вюв347885 0.0 101743
03:00+20вюв2283100 0.0 101723
06:00+21св338497 0.0 101762
09:00+26в57668 0.0 1017365
12:00+30в56505 0.0 1017650
15:00+32вюв464246 0.0 10171311
18:00+30вюв2464100 0.0 1017171
21:00+25в3376100 0.0 101737